Tracking 18980 objects as of 21-Feb-2018
HD Live streaming from Space Station
objects crossing your sky now

INTELSAT 905

Track INTELSAT 905 now!
INTELSAT 905 is classified as:


NORAD ID: 27438
Int'l Code: 2002-027A
Perigee: 35,782.7 km
Apogee: 35,804.7 km
Inclination: 0.0 °
Period: 1,436.1 minutes
Semi major axis: 42164 km
RCS: 11.535 m2 (large)
Launch date: June 5, 2002
Source: International Telecommunications Satellite Organization (ITSO)
Launch site: FRENCH GUIANA (FRGUI)

76 C-band, 22 Ku-band, broadcasting, business services, direct-to-home TV broadcasting, telecommunications, VSAT networks; Atlantic Ocean region.
aabbcc
Your satellite tracking list
Your tracking list is empty




NASA's NSSDC Master Catalog

Two Line Element Set (TLE):
1 27438U 02027A   18052.53657191 -.00000191  00000-0  00000+0 0  9999
2 27438   0.0402 259.1989 0002614  55.4842   5.3658  1.00271940 57504
Source of the keplerian elements: AFSPC